Pagina principală
METAR-TAF:

METAR-TAF

Aeroporturi :

Jayapura, Indonezia

Latitudine: 02-34-37S, longitudine: 140-30-58E, elevație: 88 m

Observații meteo curente

Raportul a fost făcut în urmă cu 38 de minute, la 12:00 UTC
Vânt 2 kt de la Nord-vest
Temperatură 26°C
Umiditate 74%
Presiune 1009 hPa
Vizibilitate de 10 km sau mai mult
Nori puțini la o înălțime de 1400 picior

METAR: WAJJ 281200Z 32002KT 9999 FEW014 26/21 Q1009 NOSIG

Ora: 19:38 (12:38 UTC)


TAF: lipsă

Observații și prognoze meteo pentru peste 4.000 de aeroporturi (rapoarte METAR și TAF).

Stațiile disponibile sunt reprezentate pe hartă prin puncte galbene și roșii.

Țineți indicatorul mouse-ului pe punctul dorit pentru a vedea denumirea stației.

Apoi, faceți clic pentru a vedea observațiile și prognozele meteorologice.

Pentru a schimba harta: Pentru mărire, faceți clic pe butoanele verzi cu cruce neagră; pentru micșorare, pe butonul verde cu o liniuță; pentru hărți învecinate, pe săgețile verzi.


METAR-TAF: